星链-3938 (STARLINK-3938 )

导读

STARLINK-3938是美国SpaceX公司星链星座的组网卫星,于2022年5月13日发射入轨。作为星链低轨互联网星座的组成部分,该卫星运行在近地轨道,依托星座规模化部署,为全球尤其是偏远地区提供高速低延迟宽带互联网服务,同时也可支撑应急通信等特殊场景需求。星链计划总计将部署数万颗卫星,该星是星座扩容过程中的一颗标准组网卫星,助力SpaceX构建全球覆盖的卫星互联网通信网络。

基本信息
目录编号:
52566
目录名称:
STARLINK-3938
国际标识:
2022-051AK
轨道中心:
EARTH
卫星名称:
星链-3938
卫星全名:
星链-3938 (STARLINK-3938 )
卫星状态:
在轨 (已飞行1576 天)
发射日期:
2022-05-13 UTC
国别 :
美国 (US)
星等 :
--
轨道信息
数据来源 国际轨道数据
星历时间: 2026-09-05T10:59:45+0800
10小时前
查看轨道信息
半长轴: 6837.863km
偏心率: 0.0001135
轨道倾角: 53.161°
近地点辐角 89.595°
升交点赤经 38.324°
平近点角 270.518°
近地点: 458.949km
远地点: 460.503km
周期: 93.786分钟
每日圈数: 15.354023
详细信息
固有亮度:
5
最大亮度:
2.5
卫星平台:
Starlink v1.5
覆盖范围:
全球
运营商:
太空探索技术公司
运营商所在国:
美国
制造商(研发单位):
太空探索技术公司
制造商所在国:
美国
使用方式:
暂无
卫星简介
星链(Starlink)计划是由太空探索技术公司(SpaceX)提出的一个巨型低轨卫星互联网星座项目,计划在2019年至2024年间在太空搭建由约1.2万颗卫星组成的“星链”网络,其中1584颗将部署在地球上空550千米处的近地轨道,并从2020年开始工作。该卫星仍在工作。
2D轨道图
3D轨道图
轨道高度分析图
轨道倾角分析图
轨道综合分析图
查看轨道综合分析图
交会数据列表
事件ID 空间交会对象 最接近时刻(TCA) 交会距离 交会风险概率(CRP) 交会风险指数(CRI) 操作
CDM_260907-042604-284105-256621
2026-09-07T
04:26:35+0000
1.817 km
极远距离
2.477494E-6 低风险 0.43
CDM_260828-190705-256606-920821
2026-08-28T
19:07:46+0000
2.500 km
极远距离
1.529816E-6 低风险 0.39
CDM_260907-064405-256606-870922
2026-09-07T
06:44:17+0000
2.644 km
极远距离
1.315943E-6 低风险 0.37
CDM_260906-035605-256606-013721
2026-09-06T
03:56:19+0000
2.846 km
极远距离
1.276689E-6 低风险 0.37
CDM_260905-235205-256606-895421
2026-09-05T
23:52:11+0000
2.879 km
极远距离
1.126299E-6 低风险 0.36
CDM_260906-221005-256606-336521
2026-09-06T
22:10:58+0000
2.855 km
极远距离
1.116912E-6 低风险 0.36
CDM_260830-113305-256606-369821
2026-08-30T
11:33:51+0000
2.762 km
极远距离
9.540883E-7 极低风险 0.35
CDM_260905-221305-256606-372021
2026-09-05T
22:13:35+0000
2.813 km
极远距离
9.310389E-7 极低风险 0.34
CDM_260907-034305-256606-444821
2026-09-07T
03:43:30+0000
2.832 km
极远距离
9.065987E-7 极低风险 0.34
CDM_260906-095605-256606-640621
2026-09-06T
09:56:03+0000
2.982 km
极远距离
8.292171E-7 极低风险 0.33